Point Lay, AK

12:43 PM AKST on February 06, 2016 (GMT -0900)
Point Lay

Weather History for PPIZ - May, 2013

Change the Weather History Date:

Tuesday, May 7, 2013

  Actual Average Record
Temperature  
Mean Temperature 24 °F -  
Max Temperature 28 °F 22 °F 51 °F (2004)
Min Temperature 21 °F 12 °F -13 °F (2001)
Degree Days  
Heating Degree Days 40    
Moisture  
Dew Point 22 °F    
Average Humidity 87    
Maximum Humidity 93    
Minimum Humidity 80    
Precipitation  
Precipitation 0.00 in - - ()
Sea Level Pressure  
Sea Level Pressure 30.05 in    
Wind  
Wind Speed - (North)    
Max Wind Speed -    
Max Gust Speed -    
Visibility 7 miles    
Events Snow    
Averages and records for this station are not official NWS values.
T = Trace of Precipitation, MM = Missing Value Source: NWS Daily Summary

Daily Weather History Graph

Daily Weather History Graph

Search for Another Location

Airport or City:

Trip Planner

Search our weather history database for the weather conditions in past years. The results will help you decide how hot, cold, wet, or windy it might be!

Date:

Astronomy

May. 07, 2013 Rise Set
Actual Time 4:47 AM AKDT 12:55 AM AKDT
Civil Twilight Sun does not rise Sun does not rise
Nautical Twilight Sun does not rise Sun does not rise
Astronomical Twilight Sun does not rise Sun does not rise
Moon 5:06 AM AKDT (5/7) 9:51 PM AKDT (5/7)
Length of Visible Light 24h 00m
Length of Day
20h 08m
Waning Crescent, 5% of the Moon is Illuminated
May 7
Waning Crescent
May 9
New
May 17
First Quarter
May 24
Full
May 31
Last Quarter

Hourly Weather History & Observations

Time (AKDT) Temp. Dew Point Humidity Pressure Visibility Wind Dir Wind Speed Gust Speed Precip Events Conditions
12:17 AM 26.6 °F 24.8 °F 93% 29.99 in 2.0 mi North - - 0.00 in   Partly Cloudy
12:29 AM 26.6 °F 23.0 °F 86% 30.00 in 1.8 mi North - - 0.00 in   Clear
12:39 AM 26.6 °F 23.0 °F 86% 30.00 in 2.0 mi North - - 0.00 in   Partly Cloudy
12:48 AM 26.6 °F 23.0 °F 86% 30.00 in 1.5 mi North - - 0.00 in   Mostly Cloudy
12:56 AM 26.1 °F 23.0 °F 88% 30.01 in 1.5 mi North - - 0.00 in   Mostly Cloudy
1:12 AM 24.8 °F 23.0 °F 93% 30.00 in 1.8 mi North - - 0.00 in Snow Blowing Snow
1:21 AM 24.8 °F 23.0 °F 93% 30.00 in 2.0 mi North - - 0.00 in Snow Blowing Snow
1:48 AM 24.8 °F 23.0 °F 93% 30.01 in 3.0 mi North - - 0.00 in Snow Blowing Snow
1:56 AM 25.2 °F 22.1 °F 88% 30.02 in 2.0 mi North - - 0.00 in Snow Light Snow
2:06 AM 24.8 °F 21.2 °F 86% 30.01 in 1.5 mi North - - 0.00 in Snow Light Snow
2:21 AM 24.8 °F 21.2 °F 86% 30.01 in 2.0 mi North - - 0.00 in Snow Blowing Snow
2:34 AM 24.8 °F 21.2 °F 86% 30.01 in 4.0 mi North - - 0.00 in Snow Blowing Snow
2:45 AM 24.8 °F 21.2 °F 86% 30.01 in 8.0 mi North - - 0.00 in   Mostly Cloudy
2:56 AM 25.2 °F 22.1 °F 88% 30.03 in 4.0 mi North - - 0.00 in   Mostly Cloudy
3:37 AM 24.8 °F 21.2 °F 86% 30.02 in 2.5 mi North - - 0.00 in Snow Light Snow
3:56 AM 24.8 °F 21.2 °F 86% 30.02 in 4.0 mi North - - N/A Snow Light Snow
4:56 AM 23.0 °F 19.0 °F 85% 30.03 in 3.0 mi North - - 0.00 in   Partly Cloudy
5:56 AM 23.0 °F 19.0 °F 85% 30.04 in 6.0 mi North - - N/A   Mostly Cloudy
6:56 AM 22.1 °F 18.1 °F 85% 30.04 in 10.0 mi North - - 0.00 in Snow Light Snow
7:24 AM 21.2 °F 17.6 °F 86% 30.03 in 1.8 mi North - - 0.00 in Snow Light Snow
7:37 AM 21.2 °F 17.6 °F 86% 30.03 in 2.5 mi North - - 0.00 in Snow Light Snow
7:48 AM 21.2 °F 19.4 °F 93% 30.02 in 3.0 mi North - - 0.00 in Snow Light Snow
7:56 AM 22.1 °F 19.0 °F 88% 30.04 in 3.0 mi North - - 0.00 in Snow Light Snow
8:56 AM 23.0 °F 19.0 °F 85% 30.04 in 9.0 mi North - - 0.00 in   Scattered Clouds
9:56 AM 23.0 °F 19.0 °F 85% 30.04 in 10.0 mi North - - N/A   Scattered Clouds
10:45 AM 24.8 °F 19.4 °F 80% 30.04 in 10.0 mi North - - N/A   Mostly Cloudy
10:56 AM 24.1 °F 20.1 °F 85% 30.05 in 10.0 mi North - - N/A   Mostly Cloudy
11:06 AM 24.8 °F 19.4 °F 80% 30.04 in 10.0 mi North - - N/A   Scattered Clouds
11:47 AM 24.8 °F 21.2 °F 86% 30.05 in 10.0 mi North - - N/A   Mostly Cloudy
11:56 AM 25.2 °F 21.0 °F 84% 30.06 in 10.0 mi North - - N/A   Mostly Cloudy
12:19 PM 24.8 °F 21.2 °F 86% 30.05 in 10.0 mi North - - N/A   Scattered Clouds
12:39 PM 24.8 °F 21.2 °F 86% 30.05 in 10.0 mi North - - N/A   Mostly Cloudy
12:56 PM 26.6 °F 21.2 °F 80% 30.05 in 10.0 mi North - - N/A   Mostly Cloudy
1:56 PM 26.1 °F 22.1 °F 85% 30.07 in 10.0 mi North - - N/A   Overcast
2:56 PM 27.1 °F 23.0 °F 84% 30.08 in 10.0 mi North - - N/A   Overcast
3:56 PM 26.6 °F 23.0 °F 86% 30.07 in 10.0 mi North - - N/A   Overcast
4:56 PM 28.0 °F 24.1 °F 85% 30.09 in 10.0 mi North - - N/A   Overcast
5:40 PM 28.4 °F 24.8 °F 86% 30.08 in 10.0 mi North - - N/A   Scattered Clouds
5:56 PM 28.0 °F 24.1 °F 85% 30.09 in 10.0 mi North - - N/A   Mostly Cloudy
6:13 PM 28.4 °F 24.8 °F 86% 30.08 in 10.0 mi North - - N/A   Mostly Cloudy
6:30 PM 28.4 °F 24.8 °F 86% 30.08 in 10.0 mi North - - 0.00 in   Mostly Cloudy
6:56 PM 28.0 °F 25.2 °F 89% 30.09 in 7.0 mi North - - 0.00 in   Scattered Clouds
7:28 PM 28.4 °F 24.8 °F 86% 30.09 in 10.0 mi North - - 0.00 in   Mostly Cloudy
7:46 PM 28.4 °F 24.8 °F 86% 30.09 in 10.0 mi North - - 0.00 in   Scattered Clouds
7:56 PM 28.0 °F 25.2 °F 89% 30.10 in 10.0 mi North - - 0.00 in   Mostly Cloudy
8:36 PM 28.4 °F 24.8 °F 86% 30.09 in 10.0 mi North - - 0.00 in   Mostly Cloudy
8:56 PM 28.0 °F 25.2 °F 89% 30.10 in 10.0 mi North - - 0.00 in   Partly Cloudy
9:15 PM 28.4 °F 24.8 °F 86% 30.09 in 10.0 mi North - - 0.00 in   Mostly Cloudy
9:24 PM 26.6 °F 24.8 °F 93% 30.09 in 10.0 mi North - - 0.00 in   Mostly Cloudy
9:32 PM 26.6 °F 24.8 °F 93% 30.09 in 10.0 mi North - - 0.00 in   Overcast
9:56 PM 27.1 °F 24.1 °F 88% 30.11 in 10.0 mi North - - 0.00 in   Overcast
10:06 PM 26.6 °F 24.8 °F 93% 30.10 in 10.0 mi North - - N/A   Overcast
10:23 PM 26.6 °F 24.8 °F 93% 30.10 in 10.0 mi North - - N/A   Overcast
10:56 PM 27.1 °F 24.1 °F 88% 30.12 in 10.0 mi North - - N/A   Overcast
11:32 PM 26.6 °F 24.8 °F 93% 30.11 in 10.0 mi North - - N/A   Overcast
11:56 PM 27.1 °F 24.1 °F 88% 30.12 in 10.0 mi North - - N/A   Overcast